Home   Weather   Zagreb   Past weeks

Flag for Croatia Past Weather in Zagreb, Croatia — Yesterday and Last 2 Weeks

Now
28 °F

Ice fog.


Feels Like: 22 °F
Forecast: 19 / 34 °F
Wind: 6 mph from East

Location: Zagreb / Pleso

Current Time: Dec 6, 2016 at 9:02:15 pm

Latest Report: Dec 6, 2016 at 8:30 pm


Visibility: 3 mi

Pressure: 30.51 "Hg

Humidity: 86%

Dew Point: 25 °F

Location of ZagrebLocation

Past Weather in Zagreb — Graph

°F

Zagreb Temperature Yesterday

Maximum temperature yesterday: 39 °F (at 12:30 pm)
Minimum temperature yesterday: 27 °F (at 11:00 pm)
Average temperature yesterday: 35 °F

High & Low Weather Summary for the Past Weeks

 TemperatureHumidityPressure
High64 °F (Nov 22, 1:30 pm)100% (Nov 22, 3:00 am)30.54 "Hg (Nov 22, 3:00 am)
Low21 °F (Nov 30, 12:00 am)36% (Nov 28, 2:30 pm)29.86 "Hg (Dec 2, 4:00 am)
Average39 °F78%30.20 "Hg
* Reported Nov 21 8:00 pm — Dec 6 8:00 pm, Zagreb, Weather by CustomWeather, © 2016

Note: Actual official high and low records may vary slightly from our data, if they occured in-between our weather recording intervals... More about our weather records

Advertising

Zagreb Weather History for the Previous 24 Hours

Scroll right to see more
 ConditionsComfort  
Time TempWeatherWind HumidityBarometerVisibility
8:00 pm
Tue, Dec 6
30 °FIce fog.8 mph80%30.51 "Hg3 mi
7:00 pm32 °FIce fog.7 mph80%30.48 "Hg2 mi
6:30 pm32 °FIce fog.5 mph87%30.45 "Hg1 mi
6:00 pm32 °FIce fog.1 mph80%30.45 "Hg1 mi
5:30 pm34 °FFog.No wind75%30.42 "Hg1 mi
5:00 pm36 °FFog.1 mph75%30.42 "Hg2 mi
4:30 pm37 °FFog.2 mph75%30.39 "Hg2 mi
4:00 pm39 °FFog.1 mph70%30.39 "Hg2 mi
3:30 pm41 °FFog.1 mph70%30.39 "Hg3 mi
3:00 pm43 °FFog.2 mph66%30.36 "Hg3 mi
2:30 pm43 °FFog.No wind71%30.36 "Hg3 mi
2:00 pm43 °FFog.1 mph66%30.36 "Hg3 mi
1:30 pm41 °FFog.3 mph70%30.36 "Hg3 mi
1:00 pm41 °FFog.3 mph70%30.39 "Hg2 mi
12:30 pm39 °FFog.2 mph75%30.39 "Hg2 mi
12:00 pm37 °FFog.2 mph81%30.39 "Hg2 mi
11:30 am37 °FFog.2 mph81%30.39 "Hg2 mi
11:00 am34 °FFog.No wind93%30.39 "Hg2 mi
10:30 am32 °FIce fog.1 mph93%30.39 "Hg1 mi
10:00 am30 °FIce fog.1 mph86%30.42 "Hg1 mi
9:30 am28 °FIce fog.No wind93%30.39 "Hg1 mi
9:00 am27 °FIce fog.1 mph93%30.39 "Hg1 mi
8:30 am23 °FLight fog.No wind93%30.39 "Hg1 mi
8:00 am23 °FPartly sunny.1 mph93%30.39 "Hg0 mi
7:30 am23 °FIce fog.2 mph93%30.36 "Hg0 mi
7:00 am23 °FIce fog.No wind93%30.36 "Hg0 mi
6:30 am23 °FIce fog.No wind93%30.36 "Hg0 mi
6:00 am23 °FIce fog.No wind86%30.36 "Hg0 mi
5:30 am23 °FIce fog.No wind93%30.36 "Hg0 mi
5:00 am23 °FIce fog.No wind93%30.36 "Hg0 mi
4:30 am23 °FIce fog.1 mph93%30.36 "Hg1 mi
4:00 am23 °FIce fog.No wind86%30.36 "Hg1 mi
3:30 am23 °FLight fog.No wind86%30.36 "Hg1 mi
3:00 am23 °FLight fog.1 mph93%30.36 "Hg1 mi
2:30 am23 °FLight fog.No wind93%30.36 "Hg1 mi
2:00 am23 °FIce fog.No wind93%30.36 "Hg1 mi
1:30 am25 °FIce fog.1 mph93%30.36 "Hg1 mi
1:00 am25 °FIce fog.2 mph93%30.36 "Hg1 mi
12:30 am25 °FIce fog.2 mph93%30.36 "Hg1 mi
12:00 am25 °FIce fog.2 mph93%30.36 "Hg1 mi
11:30 pm
Mon, Dec 5
27 °FIce fog.2 mph86%30.36 "Hg1 mi
11:00 pm27 °FIce fog.No wind86%30.36 "Hg1 mi
10:30 pm28 °FIce fog.1 mph86%30.39 "Hg2 mi
10:00 pm28 °FIce fog.No wind86%30.39 "Hg2 mi
9:30 pm28 °FClear.1 mph86%30.39 "Hg4 mi
9:00 pm30 °FClear.No wind80%30.39 "Hg5 mi
Weather by CustomWeather, © 2016

See weather overviewHow to use our weather pages